Flight Track Log - Related Links

Times and Time Zones

All times are in EST time to prevent confusion due to time zone crossing. See the AFL150 flight status page for this flight to view local times or setup timezone preferences in your user account.

Time Position Orientation Groundspeed Altitude Reporting Facility
EST Latitude Longitude Course Direction KTS MPH feet Rate Location/Type
Thu 04:33:00 AM 56.1357 37.0981 307° West  Level Estimated
Thu 04:34:00 AM 56.2035 36.9334 307° West  Level Estimated
Thu 04:35:00 AM 56.2711 36.7681 306° West  Level Estimated
Thu 04:36:00 AM 56.3385 36.6022 306° West  Level Estimated
Thu 04:37:00 AM 56.4057 36.4357 306° West  Level Estimated
Thu 04:38:00 AM 56.4726 36.2686 306° West  Level Estimated
Thu 04:39:00 AM 56.5394 36.1010 306° West  Level Estimated
Thu 04:40:00 AM 56.6059 35.9327 306° West  Level Estimated
Thu 04:41:00 AM 56.6721 35.7639 306° West  Level Estimated
Thu 04:42:00 AM 56.7382 35.5945 305° West  Level Estimated
Thu 04:43:00 AM 56.8040 35.4244 305° West  Level Estimated
Thu 04:44:00 AM 56.8696 35.2538 305° West  Level Estimated
Thu 04:45:00 AM 56.9341 35.0848 305° West  Level Estimated
Thu 04:46:00 AM 56.9983 34.9153 305° West  Level Estimated
Thu 04:47:00 AM 57.0624 34.7451 305° West  Level Estimated
Thu 04:48:00 AM 57.1262 34.5744 305° West  Level Estimated
Thu 04:49:00 AM 57.1898 34.4030 304° West  Level Estimated
Thu 04:50:00 AM 57.2531 34.2311 304° West  Level Estimated
Thu 04:51:00 AM 57.3162 34.0586 304° West  Level Estimated
Thu 04:52:00 AM 57.3791 33.8855 304° West  Level Estimated
Thu 04:53:00 AM 57.4417 33.7118 304° West  Level Estimated
Thu 04:54:00 AM 57.5041 33.5375 304° West  Level Estimated
Thu 04:55:00 AM 57.5662 33.3627 304° West  Level Estimated
Thu 04:56:00 AM 57.6281 33.1872 303° West  Level Estimated
Thu 04:57:00 AM 57.6898 33.0111 303° West  Level Estimated
Thu 04:58:00 AM 57.7512 32.8344 303° West  Level Estimated
Thu 04:59:00 AM 57.8124 32.6571 303° West  Level Estimated
Thu 05:00:00 AM 57.8733 32.4793 303° West  Level Estimated
Thu 05:01:00 AM 57.9340 32.3008 303° West  Level Estimated
Thu 05:01:32 AM 56.4977 31.7890 303° West 430 495 34,000  Level FlightAware ADS-B
Thu 05:02:32 AM 56.5164 31.5544 278° West 431 496 34,000  Level FlightAware ADS-B
Thu 05:03:32 AM 56.5336 31.3339 278° West 432 497 34,000  Level FlightAware ADS-B
Thu 05:04:31 AM 56.5637 31.1287 285° West 429 494 34,000  Level FlightAware ADS-B
Thu 05:05:31 AM 56.6166 30.9426 297° West 426 490 34,000  Level FlightAware ADS-B
Thu 05:06:32 AM 56.6930 30.7711 309° West 425 489 34,000  Level FlightAware ADS-B
Thu 05:07:31 AM 56.7606 30.6037 306° West 424 488 34,000  Level FlightAware ADS-B
Thu 05:08:32 AM 56.8283 30.4244 305° West 425 489 34,000  Level FlightAware ADS-B
Thu 05:09:32 AM 56.8929 30.2490 304° West 425 489 34,000  Level FlightAware ADS-B
Thu 05:10:33 AM 56.9606 30.0643 304° West 426 490 34,000  Level FlightAware ADS-B
Thu 05:11:32 AM 57.0248 29.8874 304° West 427 491 34,000  Level FlightAware ADS-B
Thu 05:12:32 AM 57.0904 29.7053 304° West 425 489 34,000  Level FlightAware ADS-B
Thu 05:13:32 AM 57.1555 29.5236 304° West 425 489 34,000  Level FlightAware ADS-B
Thu 05:14:32 AM 57.2188 29.3456 303° West 425 489 34,000  Level FlightAware ADS-B
Thu 05:15:33 AM 57.2828 29.1641 303° West 423 487 34,000  Level FlightAware ADS-B
Thu 05:16:32 AM 57.3469 28.9813 303° West 424 488 34,000  Level FlightAware ADS-B
Thu 05:17:33 AM 57.4111 28.7969 303° West 426 490 34,000  Level FlightAware ADS-B
Thu 05:18:33 AM 57.4751 28.6116 303° West 429 494 34,000  Level FlightAware ADS-B
Thu 05:19:32 AM 57.5382 28.4272 303° West 430 495 34,000  Level FlightAware ADS-B
Thu 05:20:33 AM 57.6029 28.2371 302° West 430 495 34,000  Level FlightAware ADS-B
Thu 05:21:32 AM 57.6651 28.0524 302° West 429 494 34,000  Level FlightAware ADS-B
Thu 05:22:33 AM 57.7292 27.8611 302° West 428 493 34,000  Level FlightAware ADS-B
Thu 05:23:33 AM 57.7915 27.6737 302° West 426 490 34,000  Level FlightAware ADS-B
Thu 05:24:32 AM 57.8469 27.4819 299° West 426 490 34,000  Level FlightAware ADS-B
Thu 05:25:32 AM 57.8883 27.2749 291° West 424 488 34,000  Level FlightAware ADS-B
Thu 05:26:32 AM 57.9296 27.0703 291° West 424 488 34,000  Level FlightAware ADS-B
Thu 05:27:32 AM 57.9705 26.8663 291° West 425 489 34,000  Level FlightAware ADS-B
Thu 05:28:33 AM 58.0124 26.6537 291° West 426 490 34,000  Level FlightAware ADS-B
Thu 05:29:32 AM 58.0536 26.4436 290° West 430 495 34,000  Level FlightAware ADS-B
Thu 05:30:32 AM 58.0938 26.2353 290° West 429 494 34,000  Level FlightAware ADS-B
Thu 05:31:32 AM 58.1345 26.0224 290° West 426 490 34,000  Level FlightAware ADS-B
Thu 05:32:32 AM 58.1735 25.8159 290° West 425 489 34,000  Level FlightAware ADS-B
Thu 05:33:33 AM 58.2130 25.6051 290° West 425 489 34,000  Level FlightAware ADS-B
Thu 05:34:33 AM 58.2520 25.3950 290° West 426 490 34,000  Level FlightAware ADS-B
Thu 05:35:32 AM 58.2895 25.1904 289° West 427 491 34,000  Level FlightAware ADS-B
Thu 05:36:32 AM 58.3288 24.9730 289° West 427 491 34,000  Level FlightAware ADS-B
Thu 05:37:28 AM 58.3288 24.9730 289° West 426 490 34,000  Level FlightAware ADS-B
Thu 05:38:30 AM 58.4033 24.5540 289° West 423 487 34,000  Level FlightAware ADS-B
Thu 05:39:08 AM 58.4271 24.4168 288° West 425 489 34,000  Level FlightAware ADS-B
Thu 05:42:31 AM 58.4271 24.4168 296° West 425 489 34,000  Level FlightAware ADS-B
Thu 05:53:33 AM 58.6772 22.6923 295° West 415 478 34,000  Level FlightAware ADS-B
Thu 05:58:14 AM 59.0114 20.3599 294° West 403 464 34,000  Level FlightAware ADS-B
Thu 05:58:54 AM 59.0340 20.2203 288° West 401 461 34,000  Level FlightAware ADS-B
Thu 05:59:35 AM 59.0514 20.1129 288° West 401 461 34,000  Level FlightAware ADS-B
Thu 06:00:15 AM 59.0787 19.9440 287° West 403 464 34,000  Level FlightAware ADS-B
Thu 06:00:55 AM 59.0998 19.8110 287° West 404 465 34,000  Level FlightAware ADS-B
Thu 06:01:34 AM 59.1215 19.6721 287° West 404 465 34,000  Level FlightAware ADS-B
Thu 06:02:14 AM 59.1432 19.5327 287° West 404 465 34,000  Level FlightAware ADS-B
Thu 06:02:55 AM 59.1655 19.3888 287° West 403 464 34,000  Level FlightAware ADS-B
Thu 06:03:35 AM 59.1871 19.2503 287° West 404 465 34,000  Level FlightAware ADS-B
Thu 06:04:15 AM 59.2086 19.1097 287° West 406 467 34,000  Level FlightAware ADS-B
Thu 06:05:15 AM 59.2405 18.9007 287° West 403 464 34,000  Level FlightAware ADS-B
Thu 06:05:55 AM 59.2612 18.7612 286° West 402 463 34,000  Level FlightAware ADS-B
Thu 06:06:36 AM 59.2822 18.6204 286° West 401 461 34,000  Level FlightAware ADS-B
Thu 06:07:16 AM 59.3027 18.4810 286° West 399 459 34,000  Level FlightAware ADS-B
Thu 06:07:55 AM 59.3215 18.3521 286° West 396 456 34,000  Level FlightAware ADS-B
Thu 06:08:36 AM 59.3426 18.2070 286° West 395 455 34,000  Level FlightAware ADS-B
Thu 06:09:16 AM 59.3616 18.0755 286° West 394 453 34,000  Level FlightAware ADS-B
Thu 06:09:56 AM 59.3811 17.9384 286° West 393 452 34,000  Level FlightAware ADS-B
Thu 06:10:36 AM 59.4007 17.8001 286° West 391 450 34,000  Level FlightAware ADS-B
Thu 06:11:14 AM 59.4170 17.6841 285° West 389 448 34,000  Level FlightAware ADS-B
Thu 06:11:58 AM 59.4391 17.5258 285° West 387 445 34,000  Level FlightAware ADS-B
Thu 06:12:37 AM 59.4586 17.3849 285° West 385 443 34,000  Level FlightAware ADS-B
Thu 06:13:15 AM 59.4756 17.2603 285° West 384 442 34,000  Level FlightAware ADS-B
Thu 06:13:57 AM 59.4948 17.1164 285° West 385 443 34,000  Level FlightAware ADS-B
Thu 06:14:38 AM 59.5133 16.9789 285° West 385 443 34,000  Level FlightAware ADS-B
Thu 06:15:17 AM 59.5294 16.8587 285° West 385 443 34,000  Level FlightAware ADS-B
Thu 06:15:57 AM 59.5488 16.7117 285° West 384 442 34,000  Level FlightAware ADS-B
Thu 06:16:38 AM 59.5662 16.5790 285° West 385 443 34,000  Level FlightAware ADS-B
Thu 06:17:17 AM 59.5838 16.4429 284° West 386 444 34,000  Level FlightAware ADS-B
Thu 06:17:54 AM 59.6018 16.3029 284° West 384 442 34,000  Level FlightAware ADS-B
Thu 06:18:38 AM 59.6189 16.1696 284° West 386 444 34,000  Level FlightAware ADS-B
Thu 06:19:09 AM 59.6340 16.0487 284° West 384 442 34,000  Level FlightAware ADS-B
Thu 06:19:22 AM 59.6399 16.0023 284° West 384 442 34,000  Level FlightAware ADS-B
Thu 06:19:39 AM 59.6468 15.9470 284° West 384 442 34,000  Level FlightAware ADS-B
Thu 06:20:09 AM 59.6597 15.8428 284° West 384 442 34,000  Level FlightAware ADS-B
Thu 06:20:39 AM 59.6724 15.7407 284° West 385 443 34,000  Level FlightAware ADS-B
Thu 06:21:09 AM 59.6848 15.6390 284° West 386 444 34,000  Level FlightAware ADS-B
Thu 06:21:39 AM 59.6978 15.5320 284° West 386 444 34,000  Level FlightAware ADS-B
Thu 06:22:09 AM 59.7098 15.4330 283° West 385 443 34,000  Level FlightAware ADS-B
Thu 06:22:39 AM 59.7224 15.3275 283° West 385 443 34,000  Level FlightAware ADS-B
Thu 06:23:24 AM 59.7401 15.1788 283° West 384 442 34,000  Level FlightAware ADS-B
Thu 06:23:54 AM 59.7530 15.0692 283° West 383 441 34,000  Level FlightAware ADS-B
Thu 06:24:25 AM 59.7650 14.9662 283° West 382 440 34,000  Level FlightAware ADS-B
Thu 06:24:55 AM 59.7772 14.8618 283° West 384 442 34,000  Level FlightAware ADS-B
Thu 06:25:40 AM 59.7947 14.7094 283° West 384 442 34,000  Level FlightAware ADS-B
Thu 06:26:10 AM 59.8065 14.6049 283° West 383 441 34,000  Level FlightAware ADS-B
Thu 06:26:53 AM 59.8211 14.4576 281° West 381 438 34,000  Level FlightAware ADS-B
Thu 06:27:23 AM 59.8313 14.3557 281° West 381 438 34,000  Level FlightAware ADS-B
Thu 06:27:55 AM 59.8422 14.2459 281° West 381 438 34,000  Level FlightAware ADS-B
Thu 06:28:43 AM 59.8586 14.0808 281° West 382 440 34,000  Level FlightAware ADS-B
Thu 06:29:17 AM 59.8703 13.9614 281° West 383 441 34,000  Level FlightAware ADS-B
Thu 06:29:49 AM 59.8812 13.8492 281° West 384 442 34,000  Level FlightAware ADS-B
Thu 06:30:30 AM 59.8943 13.7128 281° West 384 442 34,000  Level FlightAware ADS-B
Thu 06:31:11 AM 59.9083 13.5656 281° West 386 444 34,000  Level FlightAware ADS-B
Thu 06:31:48 AM 59.9200 13.4399 281° West 387 445 34,000  Level FlightAware ADS-B
Thu 06:32:34 AM 59.9353 13.2736 281° West 388 447 34,000  Level FlightAware ADS-B
Thu 06:33:26 AM 59.9518 13.0922 280° West 386 444 34,000  Level FlightAware ADS-B
Thu 06:34:05 AM 59.9640 12.9562 280° West 385 443 34,000  Level FlightAware ADS-B
Thu 06:34:51 AM 59.9781 12.7977 280° West 386 444 34,000  Level FlightAware ADS-B
Thu 06:35:34 AM 59.9912 12.6472 280° West 388 447 34,000  Level FlightAware ADS-B
Thu 06:36:21 AM 60.0051 12.4848 280° West 388 447 34,000  Level FlightAware ADS-B
Thu 06:36:58 AM 60.0189 12.3498 282° West 384 442 34,000  Level FlightAware ADS-B
Thu 06:38:25 AM 60.0615 12.0624 287° West 379 436 34,000  Level FlightAware ADS-B
Thu 06:39:18 AM 60.0869 11.8866 286° West 381 438 34,000  Level FlightAware ADS-B
Thu 06:39:59 AM 60.1081 11.7390 286° West 381 438 34,000  Level FlightAware ADS-B
Thu 06:42:31 AM 60.1811 11.2184 285° West 385 443 34,000  Level FlightAware ADS-B
Thu 06:45:00 AM 60.2519 10.6739 285° West  Level Estimated
Thu 06:46:00 AM 60.2799 10.4540 284° West  Level Estimated
Thu 06:47:00 AM 60.3074 10.2338 284° West  Level Estimated
Thu 06:48:00 AM 60.3346 10.0131 284° West  Level Estimated
Thu 06:49:00 AM 60.3614 9.7921 284° West  Level Estimated
Thu 06:50:00 AM 60.3878 9.5707 284° West  Level Estimated
Thu 06:51:00 AM 60.4139 9.3490 283° West  Level Estimated
Thu 06:52:00 AM 60.4396 9.1269 283° West  Level Estimated
Thu 06:53:00 AM 60.4649 8.9044 283° West  Level Estimated
Thu 06:54:00 AM 60.4899 8.6817 283° West  Level Estimated
Thu 06:55:00 AM 60.5145 8.4585 283° West  Level Estimated
Thu 06:56:00 AM 60.5387 8.2351 283° West  Level Estimated
Thu 06:57:00 AM 60.5625 8.0113 282° West  Level Estimated
Thu 06:58:00 AM 60.5860 7.7872 282° West  Level Estimated
Thu 06:59:00 AM 60.6091 7.5627 282° West  Level Estimated
Thu 07:00:00 AM 60.6318 7.3380 282° West  Level Estimated
Thu 07:01:00 AM 60.6541 7.1129 282° West  Level Estimated
Thu 07:02:00 AM 60.6761 6.8875 281° West  Level Estimated
Thu 07:03:00 AM 60.6977 6.6618 281° West  Level Estimated
Thu 07:04:00 AM 60.7188 6.4358 281° West  Level Estimated
Thu 07:05:00 AM 60.7397 6.2095 281° West  Level Estimated
Thu 07:06:00 AM 60.7601 5.9830 281° West  Level Estimated
Thu 07:07:00 AM 60.7802 5.7561 280° West  Level Estimated
Thu 07:08:00 AM 60.7998 5.5290 280° West  Level Estimated
Thu 07:09:00 AM 60.8191 5.3015 280° West  Level Estimated
Thu 07:10:00 AM 60.8380 5.0739 280° West  Level Estimated
Thu 07:11:00 AM 60.8565 4.8459 280° West  Level Estimated
Thu 07:12:00 AM 60.8747 4.6177 279° West  Level Estimated
Thu 07:13:00 AM 60.8924 4.3892 279° West  Level Estimated
Thu 07:14:00 AM 60.9098 4.1605 279° West  Level Estimated
Thu 07:15:00 AM 60.9268 3.9315 279° West  Level Estimated
Thu 07:16:00 AM 60.9433 3.7023 279° West  Level Estimated
Thu 07:17:00 AM 60.9595 3.4728 278° West  Level Estimated
Thu 07:18:00 AM 60.9753 3.2431 278° West  Level Estimated
Thu 07:19:00 AM 60.9907 3.0132 278° West  Level Estimated
Thu 07:20:00 AM 61.0057 2.7831 278° West  Level Estimated
Thu 07:21:00 AM 61.0204 2.5528 278° West  Level Estimated
Thu 07:22:00 AM 61.0346 2.3222 277° West  Level Estimated
Thu 07:23:00 AM 61.0484 2.0915 277° West  Level Estimated
Thu 07:24:00 AM 61.0619 1.8605 277° West  Level Estimated
Thu 07:25:00 AM 61.0749 1.6293 277° West  Level Estimated
Thu 07:26:00 AM 61.0876 1.3980 277° West  Level Estimated
Thu 07:27:00 AM 61.0998 1.1665 276° West  Level Estimated
Thu 07:28:00 AM 61.1117 0.9348 276° West  Level Estimated
Thu 07:29:00 AM 61.1232 0.7029 276° West  Level Estimated
Thu 07:30:00 AM 61.1342 0.4709 276° West  Level Estimated
Thu 07:31:00 AM 61.1449 0.2387 276° West  Level Estimated
Thu 07:32:00 AM 61.1552 0.0063 275° West  Level Estimated
Thu 07:33:00 AM 61.1651 -0.2261 275° West  Level Estimated
Thu 07:34:00 AM 61.1745 -0.4588 275° West  Level Estimated
Thu 07:35:00 AM 61.1836 -0.6916 275° West  Level Estimated
Thu 07:36:00 AM 61.1923 -0.9245 275° West  Level Estimated
Thu 07:37:00 AM 61.2006 -1.1575 274° West  Level Estimated
Thu 07:38:00 AM 61.2085 -1.3906 274° West  Level Estimated
Thu 07:39:00 AM 61.2159 -1.6239 274° West  Level Estimated
Thu 07:40:00 AM 61.2230 -1.8573 274° West  Level Estimated
Thu 07:41:00 AM 61.2297 -2.0907 274° West  Level Estimated
Thu 07:42:00 AM 61.2360 -2.3243 273° West  Level Estimated
Thu 07:43:00 AM 61.2418 -2.5580 273° West  Level Estimated
Thu 07:44:00 AM 61.2473 -2.7917 273° West  Level Estimated
Thu 07:45:00 AM 61.2524 -3.0255 273° West  Level Estimated
Thu 07:46:00 AM 61.2570 -3.2594 272° West  Level Estimated
Thu 07:47:00 AM 61.2613 -3.4934 272° West  Level Estimated
Thu 07:48:00 AM 61.2651 -3.7274 272° West  Level Estimated
Thu 07:49:00 AM 61.2686 -3.9615 272° West  Level Estimated
Thu 07:50:00 AM 61.2717 -4.1956 272° West  Level Estimated
Thu 07:51:00 AM 61.2743 -4.4298 271° West  Level Estimated
Thu 07:52:00 AM 61.2766 -4.6640 271° West  Level Estimated
Thu 07:53:00 AM 61.2784 -4.8982 271° West  Level Estimated
Thu 07:54:00 AM 61.2798 -5.1325 271° West  Level Estimated
Thu 07:55:00 AM 61.2809 -5.3668 271° West  Level Estimated
Thu 07:56:00 AM 61.2815 -5.6010 270° West  Level Estimated
Thu 07:57:00 AM 61.2817 -5.8354 270° West  Level Estimated
Thu 07:58:00 AM 61.2816 -6.0697 270° West  Level Estimated
Thu 07:59:00 AM 61.2810 -6.3039 270° West  Level Estimated
Thu 08:00:00 AM 61.2800 -6.5382 270° West  Level Estimated
Thu 08:01:00 AM 61.2786 -6.7725 269° West  Level Estimated
Thu 08:02:00 AM 61.2768 -7.0067 269° West  Level Estimated
Thu 08:03:00 AM 61.2746 -7.2409 269° West  Level Estimated
Thu 08:04:00 AM 61.2720 -7.4751 269° West  Level Estimated
Thu 08:05:00 AM 61.2690 -7.7092 269° West  Level Estimated
Thu 08:06:00 AM 61.2656 -7.9433 268° West  Level Estimated
Thu 08:07:00 AM 61.2618 -8.1773 268° West  Level Estimated
Thu 08:08:00 AM 61.2576 -8.4113 268° West  Level Estimated
Thu 08:09:00 AM 61.2530 -8.6452 268° West  Level Estimated
Thu 08:10:00 AM 61.2480 -8.8790 268° West  Level Estimated
Thu 08:11:00 AM 61.2425 -9.1128 267° West  Level Estimated
Thu 08:12:00 AM 61.2367 -9.3465 267° West  Level Estimated
Thu 08:13:00 AM 61.2305 -9.5801 267° West  Level Estimated
Thu 08:14:00 AM 61.2239 -9.8135 267° West  Level Estimated
Thu 08:15:00 AM 61.2169 -10.0469 267° West  Level Estimated
Thu 08:16:00 AM 61.2094 -10.2802 266° West  Level Estimated
Thu 08:17:00 AM 61.2016 -10.5134 266° West  Level Estimated
Thu 08:18:00 AM 61.1934 -10.7464 266° West  Level Estimated
Thu 08:19:00 AM 61.1847 -10.9794 266° West  Level Estimated
Thu 08:20:00 AM 61.1757 -11.2121 266° West  Level Estimated
Thu 08:21:00 AM 61.1663 -11.4448 265° West  Level Estimated
Thu 08:22:00 AM 61.1565 -11.6773 265° West  Level Estimated
Thu 08:23:00 AM 61.1463 -11.9097 265° West  Level Estimated
Thu 08:24:00 AM 61.1356 -12.1419 265° West  Level Estimated
Thu 08:25:00 AM 61.1246 -12.3739 264° West  Level Estimated
Thu 08:26:00 AM 61.1132 -12.6058 264° West  Level Estimated
Thu 08:27:00 AM 61.1014 -12.8376 264° West  Level Estimated
Thu 08:28:00 AM 61.0892 -13.0691 264° West  Level Estimated
Thu 08:29:00 AM 61.0766 -13.3005 264° West  Level Estimated
Thu 08:30:00 AM 61.0636 -13.5316 263° West  Level Estimated
Thu 08:31:00 AM 61.0502 -13.7626 263° West  Level Estimated
Thu 08:32:00 AM 61.0364 -13.9934 263° West  Level Estimated
Thu 08:33:00 AM 61.0222 -14.2240 263° West  Level Estimated
Thu 08:34:00 AM 61.0076 -14.4543 263° West  Level Estimated
Thu 08:35:00 AM 60.9927 -14.6845 262° West  Level Estimated
Thu 08:36:00 AM 60.9773 -14.9144 262° West  Level Estimated
Thu 08:37:00 AM 60.9616 -15.1441 262° West  Level Estimated
Thu 08:38:00 AM 60.9454 -15.3736 262° West  Level Estimated
Thu 08:39:00 AM 60.9289 -15.6029 262° West  Level Estimated
Thu 08:40:00 AM 60.9120 -15.8319 261° West  Level Estimated
Thu 08:41:00 AM 60.8947 -16.0606 261° West  Level Estimated
Thu 08:42:00 AM 60.8770 -16.2892 261° West  Level Estimated
Thu 08:43:00 AM 60.8589 -16.5174 261° West  Level Estimated
Thu 08:44:00 AM 60.8404 -16.7454 261° West  Level Estimated
Thu 08:45:00 AM 60.8216 -16.9731 260° West  Level Estimated
Thu 08:46:00 AM 60.8023 -17.2006 260° West  Level Estimated
Thu 08:47:00 AM 60.7827 -17.4278 260° West  Level Estimated
Thu 08:48:00 AM 60.7627 -17.6547 260° West  Level Estimated
Thu 08:49:00 AM 60.7423 -17.8813 260° West  Level Estimated
Thu 08:50:00 AM 60.7215 -18.1076 259° West  Level Estimated
Thu 08:51:00 AM 60.7004 -18.3336 259° West  Level Estimated
Thu 08:52:00 AM 60.6788 -18.5593 259° West  Level Estimated
Thu 08:53:00 AM 60.6569 -18.7848 259° West  Level Estimated
Thu 08:54:00 AM 60.6347 -19.0099 259° West  Level Estimated
Thu 08:55:00 AM 60.6120 -19.2347 258° West  Level Estimated
Thu 08:56:00 AM 60.5889 -19.4592 258° West  Level Estimated
Thu 08:57:00 AM 60.5655 -19.6833 258° West  Level Estimated
Thu 08:58:00 AM 60.5417 -19.9072 258° West  Level Estimated
Thu 08:59:00 AM 60.5176 -20.1306 258° West  Level Estimated
Thu 09:00:00 AM 60.4930 -20.3538 258° West  Level Estimated
Thu 09:01:00 AM 60.4681 -20.5766 257° West  Level Estimated
Thu 09:02:00 AM 60.4428 -20.7991 257° West  Level Estimated
Thu 09:03:00 AM 60.4172 -21.0212 257° West  Level Estimated
Thu 09:04:00 AM 60.3912 -21.2430 257° West  Level Estimated
Thu 09:05:00 AM 60.3648 -21.4644 257° West  Level Estimated
Thu 09:06:00 AM 60.3380 -21.6855 256° West  Level Estimated
Thu 09:07:00 AM 60.3109 -21.9062 256° West  Level Estimated
Thu 09:08:00 AM 60.2834 -22.1265 256° West  Level Estimated
Thu 09:09:00 AM 60.2556 -22.3465 256° West  Level Estimated
Thu 09:10:00 AM 60.2273 -22.5661 256° West  Level Estimated
Thu 09:11:00 AM 60.1987 -22.7853 255° West  Level Estimated
Thu 09:12:00 AM 60.1698 -23.0041 255° West  Level Estimated
Thu 09:13:00 AM 60.1405 -23.2225 255° West  Level Estimated
Thu 09:14:00 AM 60.1109 -23.4406 255° West  Level Estimated
Thu 09:15:00 AM 60.0808 -23.6582 255° West  Level Estimated
Thu 09:16:00 AM 60.0505 -23.8754 254° West  Level Estimated
Thu 09:17:00 AM 60.0197 -24.0923 254° West  Level Estimated
Thu 09:18:00 AM 59.9887 -24.3087 254° West  Level Estimated
Thu 09:19:00 AM 59.9572 -24.5247 254° West  Level Estimated
Thu 09:20:00 AM 59.9254 -24.7404 254° West  Level Estimated
Thu 09:21:00 AM 59.8933 -24.9556 254° West  Level Estimated
Thu 09:22:00 AM 59.8608 -25.1703 253° West  Level Estimated
Thu 09:23:00 AM 59.8279 -25.3847 253° West  Level Estimated
Thu 09:24:00 AM 59.7948 -25.5986 253° West  Level Estimated
Thu 09:25:00 AM 59.7612 -25.8122 253° West  Level Estimated
Thu 09:26:00 AM 59.7273 -26.0252 253° West  Level Estimated
Thu 09:27:00 AM 59.6931 -26.2379 252° West  Level Estimated
Thu 09:28:00 AM 59.6586 -26.4501 252° West  Level Estimated
Thu 09:29:00 AM 59.6236 -26.6619 252° West  Level Estimated
Thu 09:30:00 AM 59.5884 -26.8732 252° West  Level Estimated
Thu 09:31:00 AM 59.5528 -27.0841 252° West  Level Estimated
Thu 09:32:00 AM 59.5169 -27.2945 251° West  Level Estimated
Thu 09:33:00 AM 59.4806 -27.5045 251° West  Level Estimated
Thu 09:34:00 AM 59.4440 -27.7140 251° West  Level Estimated
Thu 09:35:00 AM 59.4071 -27.9231 251° West  Level Estimated
Thu 09:36:00 AM 59.3698 -28.1317 251° West  Level Estimated
Thu 09:37:00 AM 59.3322 -28.3399 251° West  Level Estimated
Thu 09:38:00 AM 59.2943 -28.5476 250° West  Level Estimated
Thu 09:39:00 AM 59.2560 -28.7548 250° West  Level Estimated
Thu 09:40:00 AM 59.2174 -28.9616 250° West  Level Estimated
Thu 09:41:00 AM 59.1785 -29.1679 250° West  Level Estimated
Thu 09:42:00 AM 59.1393 -29.3737 250° West  Level Estimated
Thu 09:43:00 AM 59.0997 -29.5791 250° West  Level Estimated
Thu 09:44:00 AM 59.0598 -29.7840 249° West  Level Estimated
Thu 09:45:00 AM 59.0196 -29.9884 249° West  Level Estimated
Thu 09:46:00 AM 58.9791 -30.1923 249° West  Level Estimated
Thu 09:47:00 AM 58.9382 -30.3957 249° West  Level Estimated
Thu 09:48:00 AM 58.8970 -30.5987 249° West  Level Estimated
Thu 09:49:00 AM 58.8555 -30.8011 248° West  Level Estimated
Thu 09:50:00 AM 58.8137 -31.0031 248° West  Level Estimated
Thu 09:51:00 AM 58.7696 -31.2143 248° West  Level Estimated
Thu 09:52:00 AM 58.7251 -31.4249 248° West  Level Estimated
Thu 09:53:00 AM 58.6802 -31.6350 248° West  Level Estimated
Thu 09:54:00 AM 58.6351 -31.8445 248° West  Level Estimated
Thu 09:55:00 AM 58.5896 -32.0535 247° West  Level Estimated
Thu 09:56:00 AM 58.5437 -32.2619 247° West  Level Estimated
Thu 09:57:00 AM 58.4975 -32.4698 247° West  Level Estimated
Thu 09:58:00 AM 58.4510 -32.6772 247° West  Level Estimated
Thu 09:59:00 AM 58.4041 -32.8839 247° West  Level Estimated
Thu 10:00:00 AM 58.3569 -33.0902 247° West  Level Estimated
Thu 10:01:00 AM 58.3094 -33.2959 246° West  Level Estimated
Thu 10:02:00 AM 58.2616 -33.5010 246° West  Level Estimated
Thu 10:03:00 AM 58.2134 -33.7056 246° West  Level Estimated
Thu 10:04:00 AM 58.1649 -33.9096 246° West  Level Estimated
Thu 10:05:00 AM 58.1160 -34.1131 246° West  Level Estimated
Thu 10:06:00 AM 58.0669 -34.3160 245° Southwest  Level Estimated
Thu 10:07:00 AM 58.0174 -34.5184 245° Southwest  Level Estimated
Thu 10:08:00 AM 57.9676 -34.7201 245° Southwest  Level Estimated
Thu 10:09:00 AM 57.9175 -34.9214 245° Southwest  Level Estimated
Thu 10:10:00 AM 57.8671 -35.1221 245° Southwest  Level Estimated
Thu 10:11:00 AM 57.8163 -35.3222 245° Southwest  Level Estimated
Thu 10:12:00 AM 57.7652 -35.5217 244° Southwest  Level Estimated
Thu 10:13:00 AM 57.7139 -35.7207 244° Southwest  Level Estimated
Thu 10:14:00 AM 57.6622 -35.9191 244° Southwest  Level Estimated
Thu 10:15:00 AM 57.6102 -36.1169 244° Southwest  Level Estimated
Thu 10:16:00 AM 57.5579 -36.3142 244° Southwest  Level Estimated
Thu 10:17:00 AM 57.5053 -36.5109 244° Southwest  Level Estimated
Thu 10:18:00 AM 57.4524 -36.7070 243° Southwest  Level Estimated
Thu 10:19:00 AM 57.3991 -36.9026 243° Southwest  Level Estimated
Thu 10:20:00 AM 57.3456 -37.0976 243° Southwest  Level Estimated
Thu 10:21:00 AM 57.2918 -37.2920 243° Southwest  Level Estimated
Thu 10:22:00 AM 57.2377 -37.4859 243° Southwest  Level Estimated
Thu 10:23:00 AM 57.1833 -37.6792 243° Southwest  Level Estimated
Thu 10:24:00 AM 57.1285 -37.8719 242° Southwest  Level Estimated
Thu 10:25:00 AM 57.0735 -38.0640 242° Southwest  Level Estimated
Thu 10:26:00 AM 57.0182 -38.2556 242° Southwest  Level Estimated
Thu 10:27:00 AM 56.9626 -38.4466 242° Southwest  Level Estimated
Thu 10:28:00 AM 56.9068 -38.6371 242° Southwest  Level Estimated
Thu 10:29:00 AM 56.8506 -38.8270 242° Southwest  Level Estimated
Thu 10:30:00 AM 56.7941 -39.0163 241° Southwest  Level Estimated
Thu 10:31:00 AM 56.7374 -39.2050 241° Southwest  Level Estimated
Thu 10:32:00 AM 56.6804 -39.3931 241° Southwest  Level Estimated
Thu 10:33:00 AM 56.6230 -39.5807 241° Southwest  Level Estimated
Thu 10:34:00 AM 56.5654 -39.7677 241° Southwest  Level Estimated
Thu 10:35:00 AM 56.5076 -39.9542 241° Southwest  Level Estimated
Thu 10:36:00 AM 56.4494 -40.1401 241° Southwest  Level Estimated
Thu 10:37:00 AM 56.3910 -40.3254 240° Southwest  Level Estimated
Thu 10:38:00 AM 56.3323 -40.5101 240° Southwest  Level Estimated
Thu 10:39:00 AM 56.2733 -40.6943 240° Southwest  Level Estimated
Thu 10:40:00 AM 56.2141 -40.8779 240° Southwest  Level Estimated
Thu 10:41:00 AM 56.1545 -41.0609 240° Southwest  Level Estimated
Thu 10:42:00 AM 56.0948 -41.2434 240° Southwest  Level Estimated
Thu 10:43:00 AM 56.0347 -41.4253 239° Southwest  Level Estimated
Thu 10:44:00 AM 55.9744 -41.6066 239° Southwest  Level Estimated
Thu 10:44:00 AM 63.1500 -54.8667 239° Southwest 250 288 34,000  Level Gander Center
Thu 10:45:00 AM 55.9138 -41.7874 239° Southwest  Level Estimated
Thu 10:45:00 AM 63.1167 -55.0833 251° West 410 472 34,000  Level Gander Center
Thu 10:46:00 AM 55.8529 -41.9676 239° Southwest  Level Estimated
Thu 10:46:00 AM 63.0500 -55.3667 243° Southwest 430 495 34,000  Level Gander Center
Thu 10:47:00 AM 55.7918 -42.1472 239° Southwest  Level Estimated
Thu 10:48:00 AM 55.7304 -42.3263 239° Southwest  Level Estimated
Thu 10:48:00 AM 62.9500 -55.8167 244° Southwest 430 495 34,000  Level Gander Center
Thu 10:49:00 AM 55.6660 -42.5127 239° Southwest  Level Estimated
Thu 10:49:00 AM 62.9000 -56.0500 245° Southwest 430 495 34,000  Level Gander Center
Thu 10:50:00 AM 62.8167 -56.2833 232° Southwest 430 495 34,000  Level Gander Center
Thu 10:51:00 AM 62.7667 -56.4667 239° Southwest 440 506 34,000  Level Gander Center
Thu 10:53:00 AM 62.6167 -56.9167 234° Southwest 440 506 34,000  Level Gander Center
Thu 10:54:00 AM 62.5500 -57.1500 238° Southwest 440 506 34,000  Level Gander Center
Thu 10:55:00 AM 62.4833 -57.3667 236° Southwest 430 495 34,000  Level Gander Center
Thu 10:55:33 AM 62.4333 -57.4333 212° Southwest 430 495 34,000  Level Montreal Center
Thu 10:56:33 AM 62.3833 -57.6500 244° Southwest 440 506 34,000  Level Montreal Center
Thu 10:58:12 AM 62.2667 -58.0333 237° Southwest 430 495 34,000  Level Gander Center
Thu 10:59:00 AM 62.2333 -58.2167 249° West 430 495 34,000  Level Gander Center
Thu 10:59:33 AM 62.1833 -58.2833 212° Southwest 430 495 34,000  Level Montreal Center
Thu 11:00:33 AM 62.1000 -58.4833 228° Southwest 430 495 34,000  Level Montreal Center
Thu 11:01:33 AM 62.0500 -58.7000 244° Southwest 430 495 34,000  Level Montreal Center
Thu 11:02:33 AM 61.9667 -58.9167 231° Southwest 430 495 34,000  Level Montreal Center
Thu 11:03:33 AM 61.9000 -59.1000 232° Southwest 430 495 34,000  Level Montreal Center
Thu 11:04:33 AM 61.8333 -59.3167 237° Southwest 430 495 34,000  Level Montreal Center
Thu 11:05:33 AM 61.7667 -59.5333 237° Southwest 430 495 34,000  Level Montreal Center
Thu 11:06:33 AM 61.6833 -59.7167 226° Southwest 430 495 34,000  Level Montreal Center
Thu 11:07:33 AM 61.6333 -59.9333 244° Southwest 430 495 34,000  Level Montreal Center
Thu 11:08:33 AM 61.5500 -60.1500 231° Southwest 430 495 34,000  Level Montreal Center
Thu 11:09:33 AM 61.4833 -60.3333 233° Southwest 430 495 34,000  Level Montreal Center
Thu 11:10:33 AM 61.4000 -60.5500 231° Southwest 430 495 34,000  Level Montreal Center
Thu 11:11:33 AM 61.3333 -60.7167 230° Southwest 430 495 34,000  Level Montreal Center
Thu 11:12:33 AM 61.2667 -60.9333 237° Southwest 430 495 34,000  Level Montreal Center
Thu 11:13:33 AM 61.2000 -61.1500 238° Southwest 430 495 34,000  Level Montreal Center
Thu 11:14:33 AM 61.1333 -61.3167 230° Southwest 430 495 34,000  Level Montreal Center
Thu 11:15:33 AM 61.0500 -61.5333 232° Southwest 420 483 34,000  Level Montreal Center
Thu 11:16:33 AM 60.9833 -61.7333 236° Southwest 410 472 34,000  Level Montreal Center
Thu 11:17:33 AM 60.9000 -61.9167 227° Southwest 420 483 34,000  Level Montreal Center
Thu 11:18:33 AM 60.8333 -62.1167 236° Southwest 430 495 34,000  Level Montreal Center
Thu 11:19:33 AM 60.7500 -62.3333 232° Southwest 440 506 34,000  Level Montreal Center
Thu 11:21:00 AM 60.6500 -62.6667 239° Southwest 440 506 34,000  Level Gander Center
Thu 11:21:33 AM 60.6000 -62.7333 213° Southwest 430 495 34,000  Level Montreal Center
Thu 11:22:33 AM 60.5167 -62.9000 225° Southwest 430 495 34,000  Level Montreal Center
Thu 11:23:33 AM 60.4500 -63.1000 236° Southwest 430 495 34,000  Level Montreal Center
Thu 11:24:33 AM 60.3667 -63.3167 232° Southwest 430 495 34,000  Level Montreal Center
Thu 11:25:33 AM 60.2833 -63.5167 230° Southwest 440 506 34,000  Level Montreal Center
Thu 11:26:33 AM 60.2167 -63.7167 236° Southwest 440 506 34,000  Level Montreal Center
Thu 11:27:33 AM 60.1333 -63.8833 225° Southwest 440 506 34,000  Level Montreal Center
Thu 11:28:33 AM 60.0667 -64.0667 234° Southwest 440 506 34,000  Level Montreal Center
Thu 11:29:33 AM 59.9833 -64.2667 230° Southwest 440 506 34,000  Level Montreal Center
Thu 11:30:33 AM 59.9167 -64.4667 236° Southwest 440 506 34,000  Level Montreal Center
Thu 11:31:33 AM 59.8333 -64.6333 225° Southwest 440 506 34,000  Level Montreal Center
Thu 11:32:33 AM 59.7500 -64.8333 230° Southwest 450 518 34,000  Level Montreal Center
Thu 11:33:33 AM 59.6667 -65.0167 228° Southwest 440 506 34,000  Level Montreal Center
Thu 11:34:33 AM 59.5833 -65.2167 231° Southwest 440 506 34,000  Level Montreal Center
Thu 11:35:33 AM 59.5000 -65.3667 222° Southwest 440 506 34,000  Level Montreal Center
Thu 11:36:33 AM 59.4333 -65.5667 237° Southwest 450 518 34,000  Level Montreal Center
Thu 11:37:33 AM 59.3333 -65.7500 223° Southwest 450 518 34,000  Level Montreal Center
Thu 11:38:33 AM 59.2500 -65.9500 231° Southwest 450 518 34,000  Level Montreal Center
Thu 11:39:33 AM 59.1667 -66.1333 228° Southwest 450 518 34,000  Level Montreal Center
Thu 11:40:33 AM 59.1000 -66.3167 235° Southwest 450 518 34,000  Level Montreal Center
Thu 11:41:33 AM 59.0000 -66.5000 223° Southwest 450 518 34,000  Level Montreal Center
Thu 11:42:33 AM 58.9167 -66.7000 231° Southwest 450 518 34,000  Level Montreal Center
Thu 11:43:33 AM 58.8333 -66.8500 223° Southwest 450 518 34,000  Level Montreal Center
Thu 11:44:33 AM 58.7500 -67.0333 229° Southwest 450 518 34,000  Level Montreal Center
Thu 11:45:33 AM 58.6667 -67.2167 229° Southwest 450 518 34,000  Level Montreal Center
Thu 11:46:33 AM 58.5833 -67.4000 229° Southwest 450 518 34,000  Level Montreal Center
Thu 11:47:33 AM 58.5000 -67.5833 229° Southwest 450 518 34,000  Level Montreal Center
Thu 11:48:33 AM 58.4167 -67.7667 229° Southwest 450 518 34,000  Level Montreal Center
Thu 11:49:33 AM 58.3333 -67.9500 229° Southwest 460 529 34,000  Level Montreal Center
Thu 11:50:33 AM 58.2333 -68.1167 221° Southwest 460 529 34,000  Level Montreal Center
Thu 11:51:33 AM 58.1667 -68.3000 235° Southwest 470 541 34,000  Level Montreal Center
Thu 11:52:18 AM 58.0833 -68.4167 217° Southwest 500 575 34,000  Level Montreal Center
Thu 11:53:18 AM 57.9833 -68.5667 219° Southwest 460 529 34,000  Level Montreal Center
Thu 11:54:18 AM 57.8833 -68.7167 219° Southwest 460 529 34,000  Level Montreal Center
Thu 11:55:18 AM 57.7667 -68.8333 208° Southwest 460 529 34,000  Level Montreal Center
Thu 11:56:18 AM 57.6833 -68.9667 221° Southwest 460 529 34,000  Level Montreal Center
Thu 11:57:18 AM 57.5667 -69.1167 215° Southwest 460 529 34,000  Level Montreal Center
Thu 11:58:18 AM 57.4500 -69.2667 215° Southwest 460 529 34,000  Level Montreal Center
Thu 11:59:18 AM 57.3667 -69.4000 221° Southwest 460 529 34,000  Level Montreal Center
Thu 12:00:18 PM 57.2500 -69.5500 215° Southwest 460 529 34,000  Level Montreal Center
Thu 12:01:18 PM 57.1333 -69.7000 215° Southwest 460 529 34,000  Level Montreal Center
Thu 12:02:18 PM 57.0500 -69.8333 221° Southwest 460 529 34,000  Level Montreal Center
Thu 12:03:18 PM 56.9333 -69.9500 209° Southwest 460 529 34,000  Level Montreal Center
Thu 12:04:18 PM 56.8333 -70.0833 216° Southwest 460 529 34,000  Level Montreal Center
Thu 12:05:18 PM 56.7333 -70.2167 216° Southwest 460 529 34,000  Level Montreal Center
Thu 12:06:18 PM 56.6167 -70.3667 215° Southwest 460 529 34,000  Level Montreal Center
Thu 12:07:18 PM 56.5167 -70.5000 216° Southwest 470 541 34,000  Level Montreal Center
Thu 12:08:18 PM 56.4000 -70.6333 212° Southwest 470 541 34,000  Level Montreal Center
Thu 12:09:18 PM 56.3000 -70.7667 217° Southwest 470 541 34,000  Level Montreal Center
Thu 12:10:18 PM 56.1833 -70.9167 216° Southwest 470 541 34,000  Level Montreal Center
Thu 12:11:18 PM 56.0667 -71.0500 213° Southwest 470 541 34,000  Level Montreal Center
Thu 12:12:18 PM 55.9500 -71.1500 206° Southwest 460 529 34,000  Level Montreal Center
Thu 12:13:18 PM 55.8667 -71.2833 222° Southwest 470 541 34,000  Level Montreal Center
Thu 12:14:18 PM 55.7500 -71.4167 213° Southwest 470 541 34,000  Level Montreal Center
Thu 12:15:18 PM 55.6333 -71.5500 213° Southwest 470 541 34,000  Level Montreal Center
Thu 12:16:18 PM 55.5333 -71.6833 217° Southwest 470 541 34,000  Level Montreal Center
Thu 12:17:18 PM 55.4167 -71.8000 210° Southwest 470 541 34,000  Level Montreal Center
Thu 12:18:18 PM 55.3167 -71.9333 217° Southwest 470 541 34,000  Level Montreal Center
Thu 12:19:18 PM 55.2000 -72.0333 206° Southwest 470 541 34,000  Level Montreal Center
Thu 12:20:18 PM 55.1000 -72.1667 217° Southwest 470 541 34,000  Level Montreal Center
Thu 12:21:18 PM 54.9833 -72.3000 213° Southwest 470 541 34,000  Level Montreal Center
Thu 12:22:18 PM 54.8667 -72.4167 210° Southwest 470 541 34,000  Level Montreal Center
Thu 12:23:18 PM 54.7500 -72.5500 213° Southwest 470 541 34,000  Level Montreal Center
Thu 12:24:18 PM 54.6500 -72.6667 214° Southwest 470 541 34,000  Level Montreal Center
Thu 12:25:18 PM 54.5333 -72.8000 214° Southwest 470 541 34,000  Level Montreal Center
Thu 12:26:18 PM 54.4333 -72.9167 214° Southwest 470 541 34,000  Level Montreal Center
Thu 12:27:18 PM 54.3167 -73.0500 214° Southwest 470 541 34,000  Level Montreal Center
Thu 12:28:18 PM 54.2000 -73.1667 210° Southwest 470 541 34,000  Level Montreal Center
Thu 12:29:18 PM 54.0833 -73.3000 214° Southwest 470 541 34,000  Level Montreal Center
Thu 12:30:18 PM 53.9833 -73.4167 214° Southwest 460 529 34,000  Level Montreal Center
Thu 12:31:18 PM 53.8667 -73.5333 211° Southwest 470 541 34,000  Level Montreal Center
Thu 12:32:18 PM 53.7667 -73.6333 211° Southwest 460 529 34,000  Level Montreal Center
Thu 12:33:18 PM 53.6333 -73.7500 207° Southwest 470 541 34,000  Level Montreal Center
Thu 12:34:18 PM 53.5167 -73.8333 203° Southwest 460 529 34,000  Level Montreal Center
Thu 12:35:18 PM 53.4000 -73.9500 211° Southwest 470 541 34,000  Level Montreal Center
Thu 12:36:18 PM 53.2833 -74.0500 207° Southwest 470 541 34,000  Level Montreal Center
Thu 12:37:18 PM 53.1667 -74.1333 203° Southwest 460 529 34,000  Level Montreal Center
Thu 12:38:18 PM 53.0500 -74.2500 211° Southwest 460 529 34,000  Level Montreal Center
Thu 12:39:18 PM 52.9500 -74.3500 211° Southwest 470 541 34,000  Level Montreal Center
Thu 12:40:18 PM 52.8333 -74.4333 203° Southwest 470 541 34,000  Level Montreal Center
Thu 12:41:18 PM 52.7167 -74.5167 203° Southwest 470 541 34,000  Level Montreal Center
Thu 12:42:18 PM 52.6000 -74.6333 211° Southwest 470 541 34,000  Level Montreal Center
Thu 12:43:18 PM 52.4833 -74.7167 204° Southwest 470 541 34,000  Level Montreal Center
Thu 12:44:18 PM 52.3500 -74.8000 201° Southwest 470 541 34,000  Level Montreal Center
Thu 12:45:18 PM 52.2333 -74.9000 208° Southwest 460 529 34,000  Level Montreal Center
Thu 12:46:18 PM 52.1000 -75.0000 205° Southwest 470 541 34,000  Level Montreal Center
Thu 12:47:18 PM 51.9833 -75.0833 204° Southwest 480 552 34,000  Level Montreal Center
Thu 12:48:18 PM 51.8667 -75.1667 204° Southwest 470 541 34,000  Level Montreal Center
Thu 12:49:18 PM 51.7500 -75.2833 212° Southwest 470 541 34,000  Level Montreal Center
Thu 12:50:18 PM 51.6333 -75.3667 204° Southwest 470 541 34,000  Level Montreal Center
Thu 12:51:18 PM 51.5167 -75.4500 204° Southwest 470 541 34,000 750 Level Montreal Center
Thu 12:52:18 PM 51.4000 -75.5667 212° Southwest 460 529 35,500 1,000 Climbing Montreal Center
Thu 12:53:18 PM 51.2833 -75.6500 204° Southwest 450 518 36,000 250 Climbing Montreal Center
Thu 12:54:18 PM 51.1667 -75.7167 200° South 450 518 36,000  Level Montreal Center
Thu 12:55:18 PM 51.0667 -75.8000 208° Southwest 450 518 36,000  Level Montreal Center
Thu 12:56:18 PM 50.9500 -75.8833 204° Southwest 450 518 36,000  Level Montreal Center
Thu 12:57:18 PM 50.8333 -75.9667 204° Southwest 450 518 36,000  Level Montreal Center
Thu 12:58:18 PM 50.7167 -76.0667 208° Southwest 450 518 36,000  Level Montreal Center
Thu 12:59:18 PM 50.6000 -76.1500 204° Southwest 450 518 36,000  Level Montreal Center
Thu 01:00:18 PM 50.5000 -76.2333 208° Southwest 450 518 36,000  Level Montreal Center
Thu 01:01:18 PM 50.3833 -76.3167 204° Southwest 450 518 36,000  Level Montreal Center
Thu 01:02:18 PM 50.2667 -76.3833 200° South 450 518 36,000  Level Montreal Center
Thu 01:03:18 PM 50.1500 -76.4667 205° Southwest 450 518 36,000  Level Montreal Center
Thu 01:04:18 PM 50.0333 -76.5500 205° Southwest 440 506 36,000  Level Montreal Center
Thu 01:05:18 PM 49.9167 -76.6500 209° Southwest 440 506 36,000  Level Montreal Center
Thu 01:06:18 PM 49.8000 -76.7167 200° South 440 506 36,000  Level Montreal Center
Thu 01:07:18 PM 49.6833 -76.8000 205° Southwest 440 506 36,000  Level Montreal Center
Thu 01:08:18 PM 49.5833 -76.8667 203° Southwest 440 506 36,000  Level Montreal Center
Thu 01:09:18 PM 49.4667 -76.9500 205° Southwest 430 495 36,000  Level Montreal Center
Thu 01:10:18 PM 49.3500 -77.0167 200° South 460 529 36,000  Level Montreal Center
Thu 01:11:18 PM 49.2500 -77.1000 209° Southwest 430 495 36,000  Level Montreal Center
Thu 01:12:18 PM 49.1500 -77.1667 204° Southwest 430 495 36,000  Level Montreal Center
Thu 01:13:18 PM 49.0333 -77.2500 205° Southwest 440 506 36,000  Level Montreal Center
Thu 01:14:18 PM 48.9000 -77.3167 198° South 430 495 36,000  Level Montreal Center
Thu 01:15:18 PM 48.8000 -77.4000 209° Southwest 430 495 36,000  Level Montreal Center
Thu 01:16:18 PM 48.7000 -77.4667 204° Southwest 440 506 36,000  Level Montreal Center
Thu 01:17:18 PM 48.5833 -77.5667 210° Southwest 440 506 36,000  Level Montreal Center
Thu 01:18:18 PM 48.4667 -77.6333 201° Southwest 440 506 36,000  Level Montreal Center
Thu 01:19:18 PM 48.3500 -77.7167 205° Southwest 440 506 36,000  Level Montreal Center
Thu 01:20:18 PM 48.2500 -77.7833 204° Southwest 430 495 36,000  Level Montreal Center
Thu 01:21:18 PM 48.1500 -77.8500 204° Southwest 430 495 36,000  Level Montreal Center
Thu 01:22:18 PM 48.0333 -77.9000 196° South 430 495 36,000  Level Montreal Center
Thu 01:23:18 PM 47.9000 -77.9667 199° South 430 495 36,000  Level Montreal Center
Thu 01:24:18 PM 47.8000 -78.0500 209° Southwest 420 483 36,000  Level Montreal Center
Thu 01:25:18 PM 47.7000 -78.1167 204° Southwest 410 472 36,000  Level Montreal Center
Thu 01:26:18 PM 47.5833 -78.1500 191° South 410 472 36,000  Level Montreal Center
Thu 01:27:18 PM 47.4833 -78.2333 209° Southwest 410 472 36,000  Level Montreal Center
Thu 01:28:18 PM 47.3833 -78.3000 204° Southwest 410 472 36,000  Level Montreal Center
Thu 01:29:18 PM 47.2667 -78.3500 196° South 400 460 36,000  Level Montreal Center
Thu 01:30:18 PM 47.1667 -78.4167 204° Southwest 400 460 36,000  Level Montreal Center
Thu 01:36:09 PM 46.5765 -78.7330 204° Southwest 389 448 36,000  Level FlightAware ADS-B (CYYZ)
Thu 01:36:39 PM 46.5315 -78.7578 201° Southwest 388 447 36,000  Level FlightAware ADS-B (CYYZ)
Thu 01:37:09 PM 46.4725 -78.7902 201° Southwest 386 444 36,000  Level FlightAware ADS-B (CYYZ)
Thu 01:37:38 PM 46.4255 -78.8160 201° Southwest 384 442 36,000  Level FlightAware ADS-B (CYYZ)
Thu 01:38:09 PM 46.3732 -78.8447 201° Southwest 384 442 36,000  Level FlightAware ADS-B (CYYZ)
Thu 01:38:39 PM 46.3234 -78.8721 201° Southwest 385 443 36,000  Level FlightAware ADS-B (CYYZ)
Thu 01:39:09 PM 46.2732 -78.8996 201° Southwest 385 443 36,000  Level FlightAware ADS-B (CYYZ)
Thu 01:39:39 PM 46.2259 -78.9254 201° Southwest 383 441 36,000  Level FlightAware ADS-B (CYYZ)
Thu 01:40:10 PM 46.1742 -78.9535 201° Southwest 382 440 36,000  Level FlightAware ADS-B (CYYZ)
Thu 01:40:40 PM 46.1251 -78.9801 201° Southwest 381 438 36,000  Level FlightAware ADS-B (CYYZ)
Thu 01:41:09 PM 46.0763 -79.0065 201° Southwest 381 438 36,000  Level FlightAware ADS-B (CYYZ)
Thu 01:41:39 PM 46.0261 -79.0337 201° Southwest 379 436 36,000  Level FlightAware ADS-B (CYYZ)
Thu 01:42:09 PM 45.9777 -79.0597 201° Southwest 377 434 36,000  Level FlightAware ADS-B (CYYZ)
Thu 01:42:40 PM 45.9279 -79.0865 201° Southwest 375 432 36,000  Level FlightAware ADS-B (CYYZ)
Thu 01:43:09 PM 45.8807 -79.1120 201° Southwest 375 432 36,000  Level FlightAware ADS-B (CYYZ)
Thu 01:43:40 PM 45.8317 -79.1382 201° Southwest 375 432 36,000  Level FlightAware ADS-B (CYYZ)
Thu 01:44:09 PM 45.7831 -79.1645 201° Southwest 376 433 36,000  Level FlightAware ADS-B (CYYZ)
Thu 01:44:39 PM 45.7356 -79.1899 201° Southwest 379 436 36,000  Level FlightAware ADS-B (CYYZ)
Thu 01:45:10 PM 45.6871 -79.2159 201° Southwest 382 440 36,000  Level FlightAware ADS-B (CYYZ)
Thu 01:45:39 PM 45.6355 -79.2435 201° Southwest 385 443 36,000  Level FlightAware ADS-B (CYYZ)
Thu 01:46:10 PM 45.5856 -79.2700 200° South 387 445 36,000  Level FlightAware ADS-B (CYYZ)
Thu 01:46:39 PM 45.5352 -79.2968 200° South 389 448 36,000  Level FlightAware ADS-B (CYYZ)
Thu 01:47:09 PM 45.4867 -79.3224 200° South 390 449 36,000  Level FlightAware ADS-B (CYYZ)
Thu 01:47:40 PM 45.4335 -79.3505 200° South 390 449 36,000  Level FlightAware ADS-B (CYYZ)
Thu 01:48:10 PM 45.3918 -79.3726 200° South 390 449 36,000  Level FlightAware ADS-B (CYYZ)
Thu 01:48:40 PM 45.3327 -79.4037 200° South 388 447 36,000  Level FlightAware ADS-B (CYYZ)
Thu 01:49:09 PM 45.2849 -79.4286 200° South 385 443 36,000  Level FlightAware ADS-B (CYYZ)
Thu 01:49:39 PM 45.2329 -79.4558 200° South 384 442 36,000  Level FlightAware ADS-B (CYYZ)
Thu 01:50:09 PM 45.1854 -79.4807 200° South 385 443 36,000  Level FlightAware ADS-B (CYYZ)
Thu 01:50:39 PM 45.1331 -79.5083 200° South 387 445 36,000  Level FlightAware ADS-B (CYYZ)
Thu 01:51:09 PM 45.0829 -79.5345 200° South 390 449 36,000  Level FlightAware ADS-B (CYYZ)
Thu 01:51:39 PM 45.0323 -79.5610 200° South 393 452 36,000  Level FlightAware ADS-B (CYYZ)
Thu 01:52:00 PM 44.9988 -79.5784 200° South 394 453 36,000  Level FlightAware ADS-B
Thu 01:52:10 PM 44.9805 -79.5879 200° South 396 456 36,000  Level FlightAware ADS-B (CYYZ)
Thu 01:52:31 PM 44.9446 -79.6065 200° South 396 456 36,000  Level FlightAware ADS-B
Thu 01:52:39 PM 44.9299 -79.6142 200° South 397 457 36,000  Level FlightAware ADS-B (CYYZ)
Thu 01:53:10 PM 44.8770 -79.6416 200° South 398 458 36,000  Level FlightAware ADS-B (CYYZ)
Thu 01:53:40 PM 44.8254 -79.6683 200° South 399 459 36,000  Level FlightAware ADS-B (CYYZ)
Thu 01:53:58 PM 44.7937 -79.6846 200° South 398 458 36,000  Level FlightAware ADS-B (EPLB / LUZ)
Thu 01:54:09 PM 44.7734 -79.6952 200° South 399 459 36,000  Level FlightAware ADS-B (CYYZ)
Thu 01:54:39 PM 44.7218 -79.7215 200° South 399 459 36,000  Level FlightAware ADS-B (CYYZ)
Thu 01:54:44 PM 44.7140 -79.7256 200° South 398 458 36,000  Level FlightAware ADS-B (EPLB / LUZ)
Thu 01:55:09 PM 44.6702 -79.7480 200° South 398 458 36,000  Level FlightAware ADS-B (CYYZ)
Thu 01:55:29 PM 44.6371 -79.7649 200° South 397 457 36,000  Level FlightAware ADS-B (EPLB / LUZ)
Thu 01:55:39 PM 44.6184 -79.7746 200° South 397 457 36,000  Level FlightAware ADS-B (CYYZ)
Thu 01:55:46 PM 44.6390 -79.7640 20° North 396 456 36,000  Level FlightAware ADS-B (CYKF)
Thu 01:56:09 PM 44.5692 -79.8059 203° Southwest 388 447 36,000  Level FlightAware ADS-B (CYYZ)
Thu 01:56:29 PM 44.5411 -79.8288 210° Southwest 381 438 36,000  Level FlightAware ADS-B (EPLB / LUZ)
Thu 01:56:59 PM 44.4946 -79.8715 213° Southwest 380 437 36,000  Level FlightAware ADS-B (CYYZ)
Thu 01:57:09 PM 44.4815 -79.8836 213° Southwest 379 436 36,000  Level FlightAware ADS-B (EPLB / LUZ)
Thu 01:57:30 PM 44.4503 -79.9121 213° Southwest 380 437 36,000  Level FlightAware ADS-B (CYYZ)
Thu 01:57:42 PM 44.4631 -79.9004 33° Northeast 379 436 36,000  Level FlightAware ADS-B (CYKF)
Thu 01:58:00 PM 44.4062 -79.9518 213° Southwest 381 438 36,000  Level FlightAware ADS-B (CYYZ)
Thu 01:58:17 PM 44.4245 -79.9354 33° Northeast 381 438 36,000  Level FlightAware ADS-B (CYKF)
Thu 01:58:29 PM 44.3635 -79.9903 213° Southwest 382 440 36,000  Level FlightAware ADS-B (CYYZ)
Thu 01:58:49 PM 44.3339 -80.0168 213° Southwest 382 440 36,000  Level FlightAware ADS-B (EPLB / LUZ)
Thu 01:58:59 PM 44.3174 -80.0316 213° Southwest 384 442 36,000  Level FlightAware ADS-B (CYYZ)
Thu 01:59:22 PM 44.2845 -80.0612 213° Southwest 382 440 36,000  Level FlightAware ADS-B (CYKF)
Thu 01:59:29 PM 44.2738 -80.0708 213° Southwest 383 441 36,000  Level FlightAware ADS-B (CYYZ)
Thu 01:59:59 PM 44.2288 -80.1109 213° Southwest 382 440 36,000  Level FlightAware ADS-B (CYYZ)
Thu 02:00:29 PM 44.1868 -80.1483 213° Southwest 384 442 36,000  Level FlightAware ADS-B (CYYZ)
Thu 02:00:40 PM 44.1691 -80.1641 213° Southwest 384 442 36,000  Level FlightAware ADS-B (EPLB / LUZ)
Thu 02:00:59 PM 44.1392 -80.1907 213° Southwest 385 443 36,000  Level FlightAware ADS-B (CYYZ)
Thu 02:01:20 PM 44.1118 -80.2152 213° Southwest 385 443 36,000  Level FlightAware ADS-B (EPLB / LUZ)
Thu 02:01:30 PM 44.0942 -80.2308 213° Southwest 386 444 36,000  Level FlightAware ADS-B (CYYZ)
Thu 02:01:59 PM 44.0493 -80.2706 213° Southwest 388 447 36,000  Level FlightAware ADS-B (CYYZ)
Thu 02:02:30 PM 44.0050 -80.3097 212° Southwest 390 449 36,000  Level FlightAware ADS-B (CYYZ)
Thu 02:02:37 PM 44.0054 -80.3094 29° Northeast 389 448 36,000  Level FlightAware ADS-B (CYKF)
Thu 02:03:00 PM 43.9578 -80.3514 212° Southwest 391 450 36,000  Level FlightAware ADS-B (CYYZ)
Thu 02:03:19 PM 43.9324 -80.3738 212° Southwest 390 449 36,000  Level FlightAware ADS-B (CYKF)
Thu 02:03:30 PM 43.9123 -80.3915 212° Southwest 391 450 36,000  Level FlightAware ADS-B (CYYZ)
Thu 02:03:59 PM 43.8669 -80.4315 212° Southwest 392 451 36,000  Level FlightAware ADS-B (CYYZ)
Thu 02:04:29 PM 43.8220 -80.4710 212° Southwest 392 451 36,000  Level FlightAware ADS-B (CYYZ)
Thu 02:04:40 PM 43.8057 -80.4853 212° Southwest 392 451 36,000  Level FlightAware ADS-B (CYKF)
Thu 02:05:00 PM 43.7750 -80.5122 212° Southwest 393 452 36,000  Level FlightAware ADS-B (CYYZ)
Thu 02:05:20 PM 43.7433 -80.5401 212° Southwest 393 452 36,000  Level FlightAware ADS-B (CYKF)
Thu 02:05:30 PM 43.7292 -80.5524 212° Southwest 394 453 36,000  Level FlightAware ADS-B (CYYZ)
Thu 02:05:54 PM 43.6977 -80.5800 212° Southwest 395 455 36,000  Level FlightAware ADS-B
Thu 02:06:00 PM 43.6829 -80.5930 212° Southwest 396 456 36,000  Level FlightAware ADS-B (CYYZ)
Thu 02:06:29 PM 43.6384 -80.6318 212° Southwest 396 456 36,000  Level FlightAware ADS-B (CYYZ)
Thu 02:06:59 PM 43.5916 -80.6725 212° Southwest 397 457 36,000  Level FlightAware ADS-B (CYYZ)
Thu 02:07:00 PM 43.6012 -80.6642 32° Northeast 396 456 36,000  Level FlightAware ADS-B (CYKF)
Thu 02:07:30 PM 43.5437 -80.7142 212° Southwest 397 457 36,000  Level FlightAware ADS-B (CYYZ)
Thu 02:07:34 PM 43.5393 -80.7180 212° Southwest 396 456 36,000  Level FlightAware ADS-B
Thu 02:08:00 PM 43.4978 -80.7540 212° Southwest 397 457 36,000  Level FlightAware ADS-B (CYYZ)
Thu 02:08:21 PM 43.4655 -80.7820 212° Southwest 395 455 36,000  Level FlightAware ADS-B (CYKF)
Thu 02:08:29 PM 43.4524 -80.7934 212° Southwest 396 456 36,000  Level FlightAware ADS-B (CYYZ)
Thu 02:09:00 PM 43.4047 -80.8346 212° Southwest 395 455 36,000  Level FlightAware ADS-B (CYYZ)
Thu 02:09:30 PM 43.3589 -80.8740 212° Southwest 394 453 36,000  Level FlightAware ADS-B (CYYZ)
Thu 02:09:31 PM 43.3638 -80.8698 32° Northeast 393 452 36,000  Level FlightAware ADS-B (EPLB / LUZ)
Thu 02:10:00 PM 43.3126 -80.9138 212° Southwest 394 453 36,000  Level FlightAware ADS-B (CYYZ)
Thu 02:10:02 PM 43.3205 -80.9071 32° Northeast 393 452 36,000  Level FlightAware ADS-B (CYKF)
Thu 02:10:30 PM 43.2668 -80.9533 212° Southwest 393 452 36,000  Level FlightAware ADS-B (CYYZ)
Thu 02:10:42 PM 43.2595 -80.9595 212° Southwest 392 451 36,000  Level FlightAware ADS-B (CYKF)
Thu 02:10:59 PM 43.2280 -80.9865 212° Southwest 393 452 36,000  Level FlightAware ADS-B (CYYZ)
Thu 02:11:21 PM 43.1942 -81.0155 212° Southwest 392 451 36,000  Level FlightAware ADS-B (CYKF)
Thu 02:11:29 PM 43.1744 -81.0324 212° Southwest 393 452 36,000  Level FlightAware ADS-B (CYYZ)
Thu 02:11:59 PM 43.1306 -81.0699 212° Southwest 392 451 36,000  Level FlightAware ADS-B (EPLB / LUZ)
Thu 02:12:00 PM 43.1299 -81.0705 213° Southwest 393 452 36,000  Level FlightAware ADS-B (CYYZ)
Thu 02:12:29 PM 43.0828 -81.1107 212° Southwest 392 451 36,000  Level FlightAware ADS-B (CYYZ)
Thu 02:12:36 PM 43.0724 -81.1196 212° Southwest 391 450 36,000  Level FlightAware ADS-B (EPLB / LUZ)
Thu 02:12:59 PM 43.0361 -81.1490 211° Southwest 396 456 36,000  Level FlightAware ADS-B (CYYZ)
Thu 02:13:15 PM 43.0612 -81.1291 30° Northeast 400 460 36,000  Level FlightAware ADS-B (CYKF)
Thu 02:13:49 PM 42.9516 -81.2014 206° Southwest 399 459 36,000  Level FlightAware ADS-B (CYYZ)
Thu 02:13:51 PM 42.9501 -81.2023 205° Southwest 398 458 36,000  Level FlightAware ADS-B (EPLB / LUZ)
Thu 02:14:19 PM 42.9017 -81.2329 205° Southwest 399 459 36,000  Level FlightAware ADS-B (CYYZ)
Thu 02:14:35 PM 42.8779 -81.2478 205° Southwest 398 458 36,000  Level FlightAware ADS-B (EPLB / LUZ)
Thu 02:14:50 PM 42.8518 -81.2640 205° Southwest 399 459 36,000  Level FlightAware ADS-B (CYYZ)
Thu 02:15:13 PM 42.8120 -81.2886 204° Southwest 399 459 36,000  Level FlightAware ADS-B (EPLB / LUZ)
Thu 02:15:20 PM 42.8010 -81.2954 204° Southwest 400 460 36,000  Level FlightAware ADS-B (CYYZ)
Thu 02:15:50 PM 42.7522 -81.3254 204° Southwest 399 459 36,000  Level FlightAware ADS-B (CYYZ)
Thu 02:15:54 PM 42.7438 -81.3305 204° Southwest 398 458 36,000  Level FlightAware ADS-B (EPLB / LUZ)
Thu 02:16:20 PM 42.7002 -81.3573 204° Southwest 398 458 36,000  Level FlightAware ADS-B (CYYZ)
Thu 02:16:34 PM 42.6763 -81.3719 204° Southwest 397 457 36,000  Level FlightAware ADS-B (EPLB / LUZ)
Thu 02:16:50 PM 42.6506 -81.3877 204° Southwest 398 458 36,000  Level FlightAware ADS-B (CYYZ)
Thu 02:17:12 PM 42.6427 -81.3926 204° Southwest 397 457 36,000  Level FlightAware ADS-B (EPLB / LUZ)
Thu 02:17:20 PM 42.6010 -81.4181 204° Southwest 398 458 36,000  Level FlightAware ADS-B (CYYZ)
Thu 02:17:49 PM 42.5525 -81.4476 204° Southwest 397 457 36,000  Level FlightAware ADS-B (CYYZ)
Thu 02:17:50 PM 42.5496 -81.4494 204° Southwest 396 456 36,000  Level FlightAware ADS-B (EPLB / LUZ)
Thu 02:18:19 PM 42.5047 -81.4767 204° Southwest 398 458 36,000  Level FlightAware ADS-B (CYYZ)
Thu 02:18:30 PM 42.4841 -81.4893 204° Southwest 397 457 36,000  Level FlightAware ADS-B (EPLB / LUZ)
Thu 02:18:50 PM 42.4506 -81.5097 204° Southwest 398 458 36,000  Level FlightAware ADS-B (CYYZ)
Thu 02:19:06 PM 42.4233 -81.5262 204° Southwest 398 458 36,000  Level FlightAware ADS-B (EPLB / LUZ)
Thu 02:19:18 PM 42.4019 -81.5393 204° Southwest 399 459 36,000  Level FlightAware ADS-B (CYYZ)
Thu 02:19:46 PM 42.3717 -81.5576 204° Southwest 399 459 36,000  Level FlightAware ADS-B (EPLB / LUZ)
Thu 02:19:49 PM 42.3508 -81.5703 204° Southwest 401 461 36,000  Level FlightAware ADS-B (CYYZ)
Thu 02:20:19 PM 42.3008 -81.6005 204° Southwest 402 463 36,000  Level FlightAware ADS-B (CYYZ)
Thu 02:20:46 PM 42.3717 -81.5576 24° Northeast 401 461 36,000  Level FlightAware ADS-B (EPLB / LUZ)
Thu 02:21:19 PM 42.2082 -81.6566 204° Southwest 401 461 36,000  Level FlightAware ADS-B (CYYZ)
Thu 02:22:33 PM 42.0741 -81.7373 204° Southwest 401 461 36,000  Level FlightAware ADS-B (CYYZ)
Thu 02:24:00 PM 41.9411 -81.8167 204° Southwest 397 457 36,000  Level Cleveland Center
Thu 02:25:02 PM 41.8397 -81.8778 204° Southwest 397 457 36,000  Level Cleveland Center
Thu 02:26:04 PM 41.7381 -81.9389 204° Southwest 397 457 36,000  Level Cleveland Center
Thu 02:27:06 PM 41.6178 -82.0089 204° Southwest 400 460 36,000  Level Cleveland Center
Thu 02:28:08 PM 41.5158 -82.0689 204° Southwest 400 460 36,000  Level Cleveland Center
Thu 02:29:10 PM 41.4144 -82.1292 204° Southwest 400 460 36,000  Level Cleveland Center
Thu 02:30:12 PM 41.3094 -82.1797 200° South 400 460 36,000  Level Cleveland Center
Thu 02:31:14 PM 41.1978 -82.2189 195° South 409 471 36,000  Level Cleveland Center
Thu 02:32:16 PM 41.0881 -82.2592 195° South 409 471 36,000  Level Cleveland Center
Thu 02:33:18 PM 40.9594 -82.3056 195° South 409 471 36,000  Level Cleveland Center
Thu 02:34:20 PM 40.8472 -82.3450 195° South 410 472 36,000  Level Cleveland Center
Thu 02:34:53 PM 40.7911 -82.3636 194° South 411 473 36,000  Level Indianapolis Center
Thu 02:35:55 PM 40.6794 -82.4036 195° South 411 473 36,000  Level Indianapolis Center
Thu 02:41:52 PM 39.9903 -82.5990 195° South 433 498 36,000  Level FlightAware ADS-B
Thu 02:42:24 PM 39.9256 -82.6038 183° South 433 498 36,000  Level FlightAware ADS-B
Thu 02:43:00 PM 39.8514 -82.6088 183° South 433 498 36,000  Level FlightAware ADS-B
Thu 02:43:45 PM 39.7700 -82.6143 183° South 432 497 36,000  Level FlightAware ADS-B
Thu 02:44:24 PM 39.6847 -82.6201 183° South 431 496 36,000  Level FlightAware ADS-B
Thu 02:44:55 PM 39.6309 -82.6237 183° South 431 496 36,000  Level FlightAware ADS-B
Thu 02:45:25 PM 39.5690 -82.6279 183° South 431 496 36,000  Level FlightAware ADS-B
Thu 02:45:58 PM 39.4969 -82.6327 183° South 431 496 36,000  Level FlightAware ADS-B
Thu 02:46:37 PM 39.4209 -82.6378 183° South 431 496 36,000  Level FlightAware ADS-B
Thu 02:47:17 PM 39.3500 -82.6425 183° South 432 497 36,000  Level FlightAware ADS-B
Thu 02:47:49 PM 39.2761 -82.6475 183° South 433 498 36,000  Level FlightAware ADS-B
Thu 02:48:33 PM 39.1987 -82.6527 183° South 435 501 36,000  Level FlightAware ADS-B
Thu 02:49:03 PM 39.1384 -82.6567 183° South 435 501 36,000  Level FlightAware ADS-B
Thu 02:49:49 PM 39.0371 -82.6633 183° South 437 503 36,000  Level FlightAware ADS-B
Thu 02:50:27 PM 38.9610 -82.6683 183° South 437 503 36,000  Level FlightAware ADS-B
Thu 02:51:07 PM 38.8811 -82.6736 183° South 436 502 36,000  Level FlightAware ADS-B
Thu 02:51:45 PM 38.8014 -82.6788 183° South 435 501 36,000  Level FlightAware ADS-B
Thu 02:52:17 PM 38.7409 -82.6828 183° South 436 502 36,000  Level FlightAware ADS-B
Thu 02:52:47 PM 38.6789 -82.6869 183° South 438 504 36,000  Level FlightAware ADS-B
Thu 02:53:31 PM 38.6111 -82.6928 183° South 432 497 36,000  Level Indianapolis Center
Thu 02:54:33 PM 38.4689 -82.7025 183° South 434 499 36,000  Level Indianapolis Center
Thu 02:55:35 PM 38.3467 -82.7092 182° South 436 502 36,000  Level Indianapolis Center
Thu 02:56:37 PM 38.2247 -82.7181 183° South 436 502 36,000  Level Indianapolis Center
Thu 02:57:39 PM 38.1036 -82.7258 183° South 436 502 36,000  Level Indianapolis Center
Thu 02:58:41 PM 37.9819 -82.7350 183° South 436 502 36,000  Level Indianapolis Center
Thu 02:59:43 PM 37.8394 -82.7419 182° South 436 502 36,000  Level Indianapolis Center
Thu 03:00:46 PM 37.7183 -82.7539 184° South 436 502 36,000  Level Indianapolis Center
Thu 03:01:48 PM 37.6058 -82.7992 198° South 427 491 36,000  Level Indianapolis Center
Thu 03:02:50 PM 37.5044 -82.8667 208° Southwest 414 476 36,000  Level Indianapolis Center
Thu 03:03:52 PM 37.4022 -82.9344 208° Southwest 413 475 36,000  Level Indianapolis Center
Thu 03:04:54 PM 37.2997 -83.0011 207° Southwest 413 475 36,000  Level Indianapolis Center
Thu 03:05:56 PM 37.1825 -83.0781 208° Southwest 413 475 36,000  Level Indianapolis Center
Thu 03:06:58 PM 37.0822 -83.1436 208° Southwest 412 474 36,000  Level Indianapolis Center
Thu 03:08:00 PM 36.9814 -83.2086 207° Southwest 412 474 36,000  Level Indianapolis Center
Thu 03:09:02 PM 36.8803 -83.2742 207° Southwest 412 474 36,000  Level Indianapolis Center
Thu 03:10:04 PM 36.7622 -83.3494 207° Southwest 412 474 36,000  Level Indianapolis Center
Thu 03:11:06 PM 36.6606 -83.4142 207° Southwest 412 474 36,000  Level Indianapolis Center
Thu 03:12:09 PM 36.5586 -83.4789 207° Southwest 412 474 36,000  Level Indianapolis Center
Thu 03:13:11 PM 36.4483 -83.5500 207° Southwest 411 473 36,000  Level Indianapolis Center
Thu 03:14:13 PM 36.3469 -83.6147 207° Southwest 411 473 36,000  Level Indianapolis Center
Thu 03:15:15 PM 36.2444 -83.6794 207° Southwest 411 473 36,000  Level Indianapolis Center
Thu 03:16:17 PM 36.1414 -83.7439 207° Southwest 412 474 36,000  Level Indianapolis Center
Thu 03:17:03 PM 36.0622 -83.8000 210° Southwest 412 474 36,000  Level Atlanta Center
Thu 03:18:03 PM 35.9581 -83.8617 206° Southwest 412 474 36,000  Level Atlanta Center
Thu 03:19:03 PM 35.8475 -83.9056 198° South 418 481 36,000  Level Atlanta Center
Thu 03:24:31 PM 35.1902 -84.0677 198° South 425 489 36,000  Level FlightAware ADS-B (KDZJ)
Thu 03:25:10 PM 35.1134 -84.0861 191° South 425 489 36,000  Level FlightAware ADS-B (KDZJ)
Thu 03:25:51 PM 35.0401 -84.1036 191° South 423 487 36,000  Level FlightAware ADS-B (KDZJ)
Thu 03:26:30 PM 34.9574 -84.1234 191° South 423 487 36,000  Level FlightAware ADS-B (KDZJ)
Thu 03:27:11 PM 34.8758 -84.1428 191° South 424 488 36,000  Level FlightAware ADS-B (KDZJ)
Thu 03:27:50 PM 34.7998 -84.1609 191° South 426 490 36,000  Level FlightAware ADS-B (KDZJ)
Thu 03:28:31 PM 34.7235 -84.1790 191° South 427 491 36,000  Level FlightAware ADS-B (KDZJ)
Thu 03:29:11 PM 34.6392 -84.1990 191° South 430 495 36,000  Level FlightAware ADS-B (KDZJ)
Thu 03:29:50 PM 34.5609 -84.2175 191° South 430 495 36,000  Level FlightAware ADS-B (KDZJ)
Thu 03:30:31 PM 34.4799 -84.2366 191° South 430 495 36,000  Level FlightAware ADS-B (KDZJ)
Thu 03:31:10 PM 34.4017 -84.2551 191° South 439 505 36,000 225 Level FlightAware ADS-B (KDZJ)
Thu 03:31:51 PM 34.3206 -84.2741 191° South 440 506 36,300 525 Climbing FlightAware ADS-B (KDZJ)
Thu 03:32:30 PM 34.2410 -84.2928 191° South 442 509 36,700 525 Climbing FlightAware ADS-B (KDZJ)
Thu 03:33:11 PM 34.1608 -84.3115 191° South 440 506 37,000 225 Climbing FlightAware ADS-B (KDZJ)
Thu 03:33:50 PM 34.0801 -84.3304 191° South 441 507 37,000  Level FlightAware ADS-B (KDZJ)
Thu 03:34:31 PM 33.9992 -84.3492 191° South 441 507 37,000  Level FlightAware ADS-B (KDZJ)
Thu 03:35:11 PM 33.9351 -84.3641 191° South 441 507 37,000  Level FlightAware ADS-B (KDZJ)
Thu 03:36:03 PM 33.8314 -84.3914 191° South 448 516 37,000  Level Atlanta Center
Thu 03:37:03 PM 33.7122 -84.4183 191° South 448 516 37,000  Level Atlanta Center
Thu 03:38:03 PM 33.5744 -84.4378 187° South 448 516 37,000  Level Atlanta Center
Thu 03:39:03 PM 33.4617 -84.4347 179° South 448 516 37,000  Level Atlanta Center
Thu 03:40:03 PM 33.3364 -84.4342 180° South 448 516 37,000  Level Atlanta Center
Thu 03:41:03 PM 33.2114 -84.4311 179° South 453 521 37,000  Level Atlanta Center
Thu 03:42:03 PM 33.0839 -84.4306 180° South 458 527 37,000  Level Atlanta Center
Thu 03:43:03 PM 32.9586 -84.4250 178° South 458 527 37,000  Level Atlanta Center
Thu 03:44:03 PM 32.8336 -84.4244 180° South 458 527 37,000  Level Atlanta Center
Thu 03:45:03 PM 32.7061 -84.4189 178° South 458 527 37,000  Level Atlanta Center
Thu 03:46:03 PM 32.5789 -84.4161 179° South 458 527 37,000  Level Atlanta Center
Thu 03:47:03 PM 32.4536 -84.4131 179° South 458 527 37,000  Level Atlanta Center
Thu 03:48:03 PM 32.3367 -84.4100 179° South 464 534 37,000  Level Atlanta Center
Thu 03:49:03 PM 32.1822 -84.4094 180° South 464 534 37,000  Level Atlanta Center
Thu 03:53:06 PM 31.6650 -84.3961 179° South 461 531 37,000  Level Jacksonville Center
Thu 03:58:28 PM 30.9718 -84.3821 179° South 462 532 37,000  Level FlightAware ADS-B (KONZ)
Thu 03:59:02 PM 30.8991 -84.3807 179° South 464 534 37,000  Level FlightAware ADS-B (KONZ)
Thu 03:59:38 PM 30.8225 -84.3792 179° South 465 535 37,000  Level FlightAware ADS-B (KONZ)
Thu 04:00:21 PM 30.7296 -84.3775 179° South 465 535 37,000  Level FlightAware ADS-B (KONZ)
Thu 04:01:01 PM 30.6425 -84.3700 176° South 472 543 37,000  Level FlightAware ADS-B (KONZ)
Thu 04:01:31 PM 30.5874 -84.3581 169° South 476 548 37,000  Level FlightAware ADS-B (KONZ)
Thu 04:02:01 PM 30.5137 -84.3330 164° South 480 552 37,000  Level FlightAware ADS-B (KONZ)
Thu 04:02:32 PM 30.4505 -84.3024 157° South 482 555 37,000  Level FlightAware ADS-B (KONZ)
Thu 04:03:12 PM 30.3823 -84.2595 151° Southeast 485 558 37,000  Level FlightAware ADS-B (KONZ)
Thu 04:03:46 PM 30.3129 -84.2143 151° Southeast 484 557 37,000  Level FlightAware ADS-B (KONZ)
Thu 04:04:19 PM 30.2418 -84.1680 151° Southeast 484 557 37,000  Level FlightAware ADS-B (KONZ)
Thu 04:04:52 PM 30.1785 -84.1268 151° Southeast 485 558 37,000  Level FlightAware ADS-B (KONZ)
Thu 04:05:34 PM 30.0968 -84.0735 151° Southeast 487 560 37,000  Level FlightAware ADS-B (KONZ)
Thu 04:06:11 PM 30.0209 -84.0243 151° Southeast 488 562 37,000  Level FlightAware ADS-B (KONZ)
Thu 04:06:42 PM 29.9683 -83.9902 151° Southeast 489 563 37,000 -170 Level FlightAware ADS-B (KONZ)
Thu 04:07:57 PM 29.8119 -83.8889 151° Southeast 496 571 36,700 -375 Descending FlightAware ADS-B (KONZ)
Thu 04:09:06 PM 29.6911 -83.8156 151° Southeast 483 556 36,100 -558 Descending Jacksonville Center
Thu 04:10:06 PM 29.5728 -83.7378 150° Southeast 483 556 35,500 -550 Descending Jacksonville Center
Thu 04:11:06 PM 29.4542 -83.6606 150° Southeast 483 556 35,000 -250 Descending Jacksonville Center
Thu 04:12:06 PM 29.3336 -83.5858 152° Southeast 483 556 35,000  Level Jacksonville Center
Thu 04:13:06 PM 29.2128 -83.5183 154° Southeast 483 556 35,000  Level Jacksonville Center
Thu 04:14:06 PM 29.0919 -83.4511 154° Southeast 483 556 35,000  Level Jacksonville Center
Thu 04:15:06 PM 28.9692 -83.3814 154° Southeast 489 563 35,000  Level Jacksonville Center
Thu 04:16:06 PM 28.8483 -83.3122 153° Southeast 489 563 35,000  Level Jacksonville Center
Thu 04:21:20 PM 28.1947 -82.9489 153° Southeast 491 565 35,000  Level FlightAware ADS-B
Thu 04:25:35 PM 27.6719 -82.6631 154° Southeast 492 566 35,000  Level FlightAware ADS-B
Thu 04:26:05 PM 27.6104 -82.6299 154° Southeast 492 566 35,000  Level FlightAware ADS-B
Thu 04:28:45 PM 27.2788 -82.4517 154° Southeast 492 566 35,000  Level FlightAware ADS-B
Thu 04:29:56 PM 27.1683 -82.3925 155° Southeast 492 566 35,000  Level FlightAware ADS-B
Thu 04:30:45 PM 27.0382 -82.3230 155° Southeast 493 567 35,000  Level FlightAware ADS-B
Thu 04:31:16 PM 26.9704 -82.2869 155° Southeast 493 567 35,000  Level FlightAware ADS-B
Thu 04:31:53 PM 26.8919 -82.2451 155° Southeast 492 566 35,000  Level FlightAware ADS-B
Thu 04:33:17 PM 26.7221 -82.1549 155° Southeast 493 567 35,000  Level FlightAware ADS-B
Thu 04:33:47 PM 26.6582 -82.1211 155° Southeast 494 568 35,000  Level FlightAware ADS-B
Thu 04:34:17 PM 26.6070 -82.0939 155° Southeast 495 570 35,000  Level FlightAware ADS-B
Thu 04:34:47 PM 26.5342 -82.0555 155° Southeast 495 570 35,000  Level FlightAware ADS-B
Thu 04:35:26 PM 26.4524 -82.0123 155° Southeast 495 570 35,000  Level FlightAware ADS-B
Thu 04:35:56 PM 26.3896 -81.9793 155° Southeast 495 570 35,000  Level FlightAware ADS-B
Thu 04:36:27 PM 26.3269 -81.9463 155° Southeast 494 568 35,000  Level FlightAware ADS-B
Thu 04:37:06 PM 26.2450 -81.9033 155° Southeast 496 571 35,000  Level FlightAware ADS-B
Thu 04:37:37 PM 26.1820 -81.8702 155° Southeast 498 573 35,000  Level FlightAware ADS-B
Thu 04:38:07 PM 26.1187 -81.8371 155° Southeast 498 573 35,000  Level FlightAware ADS-B
Thu 04:38:58 PM 26.0133 -81.7819 155° Southeast 498 573 35,000  Level FlightAware ADS-B
Thu 04:40:06 PM 25.8911 -81.7200 155° Southeast 498 573 35,000  Level Miami Center
Thu 04:41:06 PM 25.7658 -81.6528 154° Southeast 504 580 35,000 -250 Level Miami Center
Thu 04:42:06 PM 25.6361 -81.5947 158° South 504 580 34,500 -550 Descending Miami Center
Thu 04:43:06 PM 25.5014 -81.5639 168° South 494 568 33,900 -600 Descending Miami Center
Thu 04:44:06 PM 25.3678 -81.5633 180° South 489 563 33,300 -600 Descending Miami Center
Thu 04:45:06 PM 25.2333 -81.5928 191° South 485 558 32,700 -600 Descending Miami Center
Thu 04:46:06 PM 25.0983 -81.6286 194° South 490 564 32,100 -600 Descending Miami Center
Thu 04:47:06 PM 24.9719 -81.6672 195° South 483 556 31,500 -650 Descending Miami Center
Thu 04:48:06 PM 24.8453 -81.7036 195° South 483 556 30,800 -800 Descending Miami Center
Thu 04:49:06 PM 24.7189 -81.7419 195° South 476 548 29,900 -900 Descending Miami Center
Thu 04:50:06 PM 24.5850 -81.8122 206° Southwest 481 554 29,000 -700 Descending Miami Center
Thu 04:51:06 PM 24.4911 -81.8722 210° Southwest 471 542 28,500 -550 Descending Miami Center
Thu 04:52:06 PM 24.4083 -81.9717 228° Southwest 446 513 27,900 -600 Descending Miami Center
Thu 04:53:06 PM 24.3336 -82.0756 232° Southwest 440 506 27,300 -700 Descending Miami Center
Thu 04:54:06 PM 24.2528 -82.1792 229° Southwest 445 512 26,500 -900 Descending Miami Center
Thu 04:55:06 PM 24.1783 -82.2786 231° Southwest 445 512 25,500 -1,550 Descending Miami Center
Thu 04:56:06 PM 24.1014 -82.3797 230° Southwest 440 506 23,400 -2,350 Descending Miami Center
Thu 04:57:06 PM 24.0222 -82.4853 231° Southwest 429 494 20,800 -2,600 Descending Miami Center
Thu 04:59:00 PM 23.8120 -82.4898 173° South  Level FlightAware Approximate
Thu 05:06:00 PM 22.9891 -82.4091 180° South  Level Estimated
Thu 05:07:00 PM 22.9891 -82.4091 180° South  Level Estimated
Thu 05:08:00 PM 22.9891 -82.4091 180° South  Level Estimated
Thu 05:09:00 PM 22.9891 -82.4091 180° South  Level Estimated
Thu 05:10:00 PM 22.9891 -82.4091 180° South  Level Estimated
Thu 05:11:00 PM 22.9891 -82.4091 180° South  Level Estimated
Thu 05:12:00 PM 22.9891 -82.4091 180° South  Level Estimated
Thu 05:13:00 PM 22.9891 -82.4091 180° South  Level Estimated
Thu 05:14:00 PM 22.9891 -82.4091 180° South  Level Estimated
Thu 05:15:00 PM 22.9891 -82.4091 180° South  Level Estimated
Thu 05:16:00 PM 22.9891 -82.4091 180° South  Level Estimated
Thu 05:17:00 PM 22.9891 -82.4091 180° South  Level Estimated
Thu 05:18:00 PM 22.9891 -82.4091 180° South  Level Estimated
Thu 05:19:00 PM 22.9891 -82.4091 180° South  Level Estimated
Thu 05:20:00 PM 22.9891 -82.4091 180° South  Level Estimated
Thu 05:21:00 PM 22.9891 -82.4091 180° South  Level Estimated
Thu 05:22:00 PM 22.9891 -82.4091 180° South  Level Estimated
Thu 05:23:00 PM 22.9891 -82.4091 180° South  Level Estimated
Thu 05:24:00 PM 22.9891 -82.4091 180° South  Level Estimated
Thu 05:25:00 PM 22.9891 -82.4091 180° South  Level Estimated
Thu 05:26:00 PM 22.9891 -82.4091 180° South  Level Estimated
Thu 05:27:00 PM 22.9891 -82.4091 180° South  Level Estimated
Thu 05:28:00 PM 22.9891 -82.4091 180° South  Level Estimated
Thu 05:29:00 PM 22.9891 -82.4091 180° South  Level Estimated

Login

Don't have an account? Register now (free) for customized features, flight alerts, and more!